Time,TemperatureF,DewpointF,PressureIn,WindDirection,WindDirectionDegrees,WindSpeedMPH,WindSpeedGustMPH,Humidity,HourlyPrecipIn,Conditions,Clouds,dailyrainin,SoftwareType,DateUTC
2013-08-29 00:00:00,72.7,69.3,30.02,North,355,0.0,0.0,89,0.00,,SCT033,0.00,VWS V15.00,2013-08-29 04:00:00,
2013-08-29 00:01:00,72.7,69.3,30.01,North,355,0.0,0.0,89,0.00,,CLR,0.00,VWS V14.01,2013-08-29 04:01:00,
2013-08-29 00:02:00,72.7,69.3,30.01,North,355,0.0,0.0,89,0.00,,CLR,0.00,VWS V14.01,2013-08-29 04:02:00,
2013-08-29 00:03:00,72.6,69.2,30.01,North,355,0.0,0.0,89,0.00,,CLR,0.00,VWS V14.01,2013-08-29 04:03:00,
2013-08-29 00:07:00,72.6,69.5,30.01,North,355,0.0,0.0,90,0.00,,CLR,0.00,VWS V14.01,2013-08-29 04:07:00,
2013-08-29 00:12:00,72.7,69.6,30.02,North,355,0.0,0.0,90,0.00,,CLR,0.00,VWS V14.01,2013-08-29 04:12:00,
2013-08-29 00:15:00,72.7,69.6,30.02,North,355,0.0,0.0,90,0.00,,SCT033,0.00,VWS V15.00,2013-08-29 04:15:00,
2013-08-29 00:17:00,72.7,69.6,30.02,North,355,0.0,0.0,90,0.00,,CLR,0.00,VWS V14.01,2013-08-29 04:17:00,
2013-08-29 00:22:00,72.7,69.6,30.02,North,355,0.0,0.0,90,0.00,,CLR,0.00,VWS V14.01,2013-08-29 04:22:00,
2013-08-29 00:27:00,72.6,69.5,30.01,North,355,0.0,0.0,90,0.00,,CLR,0.00,VWS V14.01,2013-08-29 04:27:00,
2013-08-29 00:30:00,72.5,69.4,30.01,North,355,0.0,0.0,90,0.00,,SCT033,0.00,VWS V15.00,2013-08-29 04:30:00,
2013-08-29 00:32:00,72.4,69.3,30.02,North,355,0.0,0.0,90,0.00,,CLR,0.00,VWS V14.01,2013-08-29 04:32:00,
2013-08-29 00:37:00,72.3,69.2,30.02,North,355,0.0,0.0,90,0.00,,CLR,0.00,VWS V14.01,2013-08-29 04:37:00,
2013-08-29 00:42:00,72.1,69.0,30.02,North,355,0.0,0.0,90,0.00,,CLR,0.00,VWS V14.01,2013-08-29 04:42:00,
2013-08-29 00:45:00,72.0,68.9,30.02,North,355,0.0,0.0,90,0.00,,SCT033,0.00,VWS V15.00,2013-08-29 04:45:00,
2013-08-29 00:47:00,71.9,68.8,30.02,North,355,0.0,0.0,90,0.00,,CLR,0.00,VWS V14.01,2013-08-29 04:47:00,
2013-08-29 00:53:00,71.6,68.5,30.02,North,355,0.0,0.0,90,0.00,,CLR,0.00,VWS V14.01,2013-08-29 04:53:00,
2013-08-29 00:58:00,71.5,68.4,30.02,North,355,0.0,0.0,90,0.00,,CLR,0.00,VWS V14.01,2013-08-29 04:58:00,
2013-08-29 01:00:00,71.4,68.3,30.01,North,355,0.0,0.0,90,0.00,,SCT033,0.00,VWS V15.00,2013-08-29 05:00:00,
2013-08-29 01:03:00,71.3,68.2,30.01,North,355,0.0,0.0,90,0.00,,CLR,0.00,VWS V14.01,2013-08-29 05:03:00,
2013-08-29 01:08:00,71.1,68.0,30.01,North,355,0.0,0.0,90,0.00,,CLR,0.00,VWS V14.01,2013-08-29 05:08:00,
2013-08-29 01:13:00,71.0,67.9,30.02,North,355,0.0,0.0,90,0.00,,CLR,0.00,VWS V14.01,2013-08-29 05:13:00,
2013-08-29 01:15:00,71.0,67.9,30.02,North,355,0.0,0.0,90,0.00,,SCT033,0.00,VWS V15.00,2013-08-29 05:15:00,
2013-08-29 01:18:00,70.9,67.8,30.02,North,355,0.0,0.0,90,0.00,,CLR,0.00,VWS V14.01,2013-08-29 05:18:00,
2013-08-29 01:23:00,70.7,67.6,30.02,North,355,0.0,0.0,90,0.00,,CLR,0.00,VWS V14.01,2013-08-29 05:23:00,
2013-08-29 01:28:00,70.5,67.4,30.02,North,355,0.0,0.0,90,0.00,,CLR,0.00,VWS V14.01,2013-08-29 05:28:00,
2013-08-29 01:30:00,70.5,67.4,30.02,North,355,0.0,0.0,90,0.00,,SCT033,0.00,VWS V15.00,2013-08-29 05:30:00,
2013-08-29 01:33:00,70.4,67.3,30.02,North,355,0.0,0.0,90,0.00,,CLR,0.00,VWS V14.01,2013-08-29 05:33:00,
2013-08-29 01:38:00,70.2,67.1,30.03,North,355,0.0,0.0,90,0.00,,CLR,0.00,VWS V14.01,2013-08-29 05:38:00,
2013-08-29 01:43:00,70.1,67.0,30.02,North,355,0.0,0.0,90,0.00,,CLR,0.00,VWS V14.01,2013-08-29 05:43:00,
2013-08-29 01:45:00,70.1,67.0,30.02,North,355,0.0,0.0,90,0.00,,SCT033,0.00,VWS V15.00,2013-08-29 05:45:00,
2013-08-29 01:48:00,70.0,66.9,30.02,North,355,0.0,0.0,90,0.00,,CLR,0.00,VWS V14.01,2013-08-29 05:48:00,
2013-08-29 01:53:00,69.9,66.8,30.02,North,355,0.0,0.0,90,0.00,,CLR,0.00,VWS V14.01,2013-08-29 05:53:00,
2013-08-29 01:58:00,69.8,66.7,30.03,North,355,0.0,0.0,90,0.00,,CLR,0.00,VWS V14.01,2013-08-29 05:58:00,
2013-08-29 02:00:00,69.8,67.1,30.03,North,355,0.0,0.0,91,0.00,,SCT033,0.00,VWS V15.00,2013-08-29 06:00:00,
2013-08-29 02:04:00,69.8,67.1,30.03,North,355,0.0,0.0,91,0.00,,CLR,0.00,VWS V14.01,2013-08-29 06:04:00,
2013-08-29 02:09:00,69.7,67.0,30.03,North,355,0.0,0.0,91,0.00,,CLR,0.00,VWS V14.01,2013-08-29 06:09:00,
2013-08-29 02:14:00,69.6,66.9,30.03,North,355,0.0,0.0,91,0.00,,CLR,0.00,VWS V14.01,2013-08-29 06:14:00,
2013-08-29 02:15:00,69.6,66.9,30.03,North,355,0.0,0.0,91,0.00,,SCT033,0.00,VWS V15.00,2013-08-29 06:15:00,
2013-08-29 02:19:00,69.5,66.8,30.03,North,355,0.0,0.0,91,0.00,,CLR,0.00,VWS V14.01,2013-08-29 06:19:00,
2013-08-29 02:24:00,69.5,66.8,30.03,North,355,0.0,0.0,91,0.00,,CLR,0.00,VWS V14.01,2013-08-29 06:24:00,
2013-08-29 02:29:00,69.5,66.8,30.03,North,355,0.0,0.0,91,0.00,,CLR,0.00,VWS V14.01,2013-08-29 06:29:00,
2013-08-29 02:30:00,69.5,66.8,30.03,North,355,0.0,0.0,91,0.00,,SCT033,0.00,VWS V15.00,2013-08-29 06:30:00,
2013-08-29 02:34:00,69.5,66.8,30.03,North,355,0.0,0.0,91,0.00,,CLR,0.00,VWS V14.01,2013-08-29 06:34:00,
2013-08-29 02:39:00,69.6,66.9,30.03,North,355,0.0,0.0,91,0.00,,CLR,0.00,VWS V14.01,2013-08-29 06:39:00,
2013-08-29 02:44:00,69.6,66.9,30.03,North,355,0.0,0.0,91,0.00,,CLR,0.00,VWS V14.01,2013-08-29 06:44:00,
2013-08-29 02:45:00,69.6,67.2,30.03,North,355,0.0,0.0,92,0.00,,SCT033,0.00,VWS V15.00,2013-08-29 06:45:00,
2013-08-29 02:49:00,69.6,67.2,30.03,North,355,0.0,0.0,92,0.00,,CLR,0.00,VWS V14.01,2013-08-29 06:49:00,
2013-08-29 02:54:00,69.5,66.8,30.02,North,355,0.0,0.0,91,0.00,,CLR,0.00,VWS V14.01,2013-08-29 06:54:00,
2013-08-29 02:59:00,69.4,66.7,30.03,North,355,0.0,0.0,91,0.00,,CLR,0.00,VWS V14.01,2013-08-29 06:59:00,
2013-08-29 03:00:00,69.4,66.7,30.03,North,355,0.0,0.0,91,0.00,,SCT033,0.00,VWS V15.00,2013-08-29 07:00:00,
2013-08-29 03:04:00,69.4,66.7,30.03,North,355,0.0,0.0,91,0.00,,CLR,0.00,VWS V14.01,2013-08-29 07:04:00,
2013-08-29 03:09:00,69.3,66.9,30.03,North,355,0.0,0.0,92,0.00,,CLR,0.00,VWS V14.01,2013-08-29 07:09:00,
2013-08-29 03:14:00,69.3,66.9,30.03,North,355,0.0,0.0,92,0.00,,CLR,0.00,VWS V14.01,2013-08-29 07:14:00,
2013-08-29 03:15:00,69.3,66.9,30.03,North,355,0.0,0.0,92,0.00,,SCT033,0.00,VWS V15.00,2013-08-29 07:15:00,
2013-08-29 03:19:00,69.3,66.9,30.03,North,355,0.0,0.0,92,0.00,,CLR,0.00,VWS V14.01,2013-08-29 07:19:00,
2013-08-29 03:24:00,69.3,66.9,30.03,North,355,0.0,0.0,92,0.00,,CLR,0.00,VWS V14.01,2013-08-29 07:24:00,
2013-08-29 03:29:00,69.3,66.9,30.03,North,355,0.0,0.0,92,0.00,,CLR,0.00,VWS V14.01,2013-08-29 07:29:00,
2013-08-29 03:30:00,69.2,66.8,30.03,North,355,0.0,0.0,92,0.00,,SCT033,0.00,VWS V15.00,2013-08-29 07:30:00,
2013-08-29 03:34:00,69.2,66.8,30.03,North,355,0.0,0.0,92,0.00,,CLR,0.00,VWS V14.01,2013-08-29 07:34:00,
2013-08-29 03:39:00,69.4,67.0,30.03,North,355,0.0,0.0,92,0.00,,CLR,0.00,VWS V14.01,2013-08-29 07:39:00,
2013-08-29 03:45:00,69.7,67.6,30.03,North,355,0.0,0.0,93,0.00,,CLR,0.00,VWS V14.01,2013-08-29 07:45:00,
2013-08-29 03:50:00,70.0,67.9,30.03,North,355,0.0,0.0,93,0.00,,CLR,0.00,VWS V14.01,2013-08-29 07:50:00,
2013-08-29 03:55:00,70.2,68.1,30.03,North,355,0.0,0.0,93,0.00,,CLR,0.00,VWS V14.01,2013-08-29 07:55:00,
2013-08-29 04:00:00,70.4,68.3,30.02,North,355,0.0,0.0,93,0.00,,CLR,0.00,VWS V14.01,2013-08-29 08:00:00,
2013-08-29 04:05:00,70.7,68.6,30.02,North,355,0.0,0.0,93,0.00,,CLR,0.00,VWS V14.01,2013-08-29 08:05:00,
2013-08-29 04:10:00,70.9,68.8,30.02,North,355,0.0,0.0,93,0.00,,CLR,0.00,VWS V14.01,2013-08-29 08:10:00,
2013-08-29 04:15:00,71.0,68.9,30.03,North,355,0.0,0.0,93,0.00,,CLR,0.00,VWS V14.01,2013-08-29 08:15:00,
2013-08-29 04:20:00,70.9,68.8,30.03,North,355,0.0,0.0,93,0.00,,CLR,0.00,VWS V14.01,2013-08-29 08:20:00,
2013-08-29 04:25:00,70.9,68.8,30.03,North,355,0.0,0.0,93,0.00,,CLR,0.00,VWS V14.01,2013-08-29 08:25:00,
2013-08-29 04:30:00,70.8,68.7,30.03,North,355,0.0,0.0,93,0.00,,CLR,0.00,VWS V14.01,2013-08-29 08:30:00,
2013-08-29 04:35:00,70.6,68.5,30.04,North,355,0.0,0.0,93,0.00,,CLR,0.00,VWS V14.01,2013-08-29 08:35:00,
2013-08-29 04:40:00,70.5,68.4,30.04,North,355,0.0,0.0,93,0.00,,CLR,0.00,VWS V14.01,2013-08-29 08:40:00,
2013-08-29 04:45:00,70.3,68.2,30.04,North,355,0.0,0.0,93,0.00,,CLR,0.00,VWS V14.01,2013-08-29 08:45:00,
2013-08-29 04:50:00,70.0,67.9,30.04,North,355,0.0,0.0,93,0.00,,CLR,0.00,VWS V14.01,2013-08-29 08:50:00,
2013-08-29 04:55:00,69.8,67.7,30.04,North,355,0.0,0.0,93,0.00,,CLR,0.00,VWS V14.01,2013-08-29 08:55:00,
2013-08-29 05:00:00,69.6,67.5,30.04,North,355,0.0,0.0,93,0.00,,CLR,0.00,VWS V14.01,2013-08-29 09:00:00,
2013-08-29 05:05:00,69.4,67.3,30.04,North,355,0.0,0.0,93,0.00,,CLR,0.00,VWS V14.01,2013-08-29 09:05:00,
2013-08-29 05:10:00,69.3,67.2,30.04,North,355,0.0,0.0,93,0.00,,,0.00,VWS V14.01,2013-08-29 09:10:00,
2013-08-29 05:15:00,69.1,67.0,30.04,North,355,0.0,0.0,93,0.00,,,0.00,VWS V14.01,2013-08-29 09:15:00,
2013-08-29 05:20:00,69.0,66.9,30.04,North,355,0.0,0.0,93,0.00,,,0.00,VWS V14.01,2013-08-29 09:20:00,
2013-08-29 05:25:00,68.7,66.6,30.04,North,355,0.0,0.0,93,0.00,,,0.00,VWS V14.01,2013-08-29 09:25:00,
2013-08-29 05:30:00,68.5,66.4,30.04,North,355,0.0,0.0,93,0.00,,,0.00,VWS V14.01,2013-08-29 09:30:00,
2013-08-29 05:35:00,68.4,66.0,30.04,North,355,0.0,0.0,92,0.00,,,0.00,VWS V14.01,2013-08-29 09:35:00,
2013-08-29 05:40:00,68.2,65.8,30.04,North,355,0.0,0.0,92,0.00,,,0.00,VWS V14.01,2013-08-29 09:40:00,
2013-08-29 05:45:00,68.0,65.9,30.04,North,355,0.0,0.0,93,0.00,,,0.00,VWS V14.01,2013-08-29 09:45:00,
2013-08-29 05:50:00,67.8,65.7,30.04,North,355,0.0,0.0,93,0.00,,FEW230,0.00,VWS V14.01,2013-08-29 09:50:00,
2013-08-29 05:55:00,67.6,65.2,30.05,North,355,0.0,0.0,92,0.00,,FEW230,0.00,VWS V14.01,2013-08-29 09:55:00,
2013-08-29 06:00:00,67.5,65.1,30.05,North,355,0.0,0.0,92,0.00,,SCT033,0.00,VWS V15.00,2013-08-29 10:00:00,
2013-08-29 06:01:00,67.5,65.1,30.05,North,355,0.0,0.0,92,0.00,,FEW230,0.00,VWS V14.01,2013-08-29 10:01:00,
2013-08-29 06:06:00,67.3,65.2,30.05,North,355,0.0,0.0,93,0.00,,FEW230,0.00,VWS V14.01,2013-08-29 10:06:00,
2013-08-29 06:11:00,67.1,65.0,30.05,North,355,0.0,0.0,93,0.00,,,0.00,VWS V14.01,2013-08-29 10:11:00,
2013-08-29 06:15:00,67.0,64.6,30.05,North,355,0.0,0.0,92,0.00,,SCT033,0.00,VWS V15.00,2013-08-29 10:15:00,
2013-08-29 06:16:00,67.0,64.6,30.05,North,355,0.0,0.0,92,0.00,,,0.00,VWS V14.01,2013-08-29 10:16:00,
2013-08-29 06:21:00,66.8,64.4,30.05,North,355,0.0,0.0,92,0.00,,,0.00,VWS V14.01,2013-08-29 10:21:00,
2013-08-29 06:26:00,66.7,64.6,30.05,North,355,0.0,0.0,93,0.00,,,0.00,VWS V14.01,2013-08-29 10:26:00,
2013-08-29 06:30:00,66.7,64.6,30.05,North,355,0.0,0.0,93,0.00,,SCT033,0.00,VWS V15.00,2013-08-29 10:30:00,
2013-08-29 06:31:00,66.7,64.6,30.05,North,355,0.0,0.0,93,0.00,,,0.00,VWS V14.01,2013-08-29 10:31:00,
2013-08-29 06:36:00,66.6,64.5,30.05,North,355,0.0,0.0,93,0.00,,,0.00,VWS V14.01,2013-08-29 10:36:00,
2013-08-29 06:41:00,66.7,64.6,30.05,North,355,0.0,0.0,93,0.00,,,0.00,VWS V14.01,2013-08-29 10:41:00,
2013-08-29 06:45:00,66.7,64.6,30.05,North,355,0.0,0.0,93,0.00,,SCT033,0.00,VWS V15.00,2013-08-29 10:45:00,
2013-08-29 06:46:00,66.8,64.7,30.05,North,355,0.0,0.0,93,0.00,,,0.00,VWS V14.01,2013-08-29 10:46:00,
2013-08-29 06:51:00,66.8,64.7,30.05,North,355,0.0,0.0,93,0.00,,,0.00,VWS V14.01,2013-08-29 10:51:00,
2013-08-29 06:56:00,66.9,64.8,30.05,North,355,0.0,0.0,93,0.00,,,0.00,VWS V14.01,2013-08-29 10:56:00,
2013-08-29 07:00:00,66.9,64.8,30.06,North,355,0.0,0.0,93,0.00,,SCT033,0.00,VWS V15.00,2013-08-29 11:00:00,
2013-08-29 07:01:00,66.8,64.7,30.06,North,355,0.0,0.0,93,0.00,,,0.00,VWS V14.01,2013-08-29 11:01:00,
2013-08-29 07:06:00,66.7,64.6,30.05,North,355,0.0,0.0,93,0.00,,,0.00,VWS V14.01,2013-08-29 11:06:00,
2013-08-29 07:11:00,66.6,64.5,30.06,North,355,0.0,0.0,93,0.00,,,0.00,VWS V14.01,2013-08-29 11:11:00,
2013-08-29 07:15:00,66.5,64.4,30.06,North,355,0.0,0.0,93,0.00,,SCT033,0.00,VWS V15.00,2013-08-29 11:15:00,
2013-08-29 07:16:00,66.4,64.3,30.06,North,355,0.0,0.0,93,0.00,,,0.00,VWS V14.01,2013-08-29 11:16:00,
2013-08-29 07:21:00,66.3,64.2,30.06,North,355,0.0,0.0,93,0.00,,,0.00,VWS V14.01,2013-08-29 11:21:00,
2013-08-29 07:26:00,66.2,64.1,30.06,North,355,0.0,0.0,93,0.00,,,0.00,VWS V14.01,2013-08-29 11:26:00,
2013-08-29 07:30:00,66.1,64.0,30.06,North,355,0.0,0.0,93,0.00,,SCT033,0.00,VWS V15.00,2013-08-29 11:30:00,
2013-08-29 07:31:00,66.1,64.0,30.06,North,355,0.0,0.0,93,0.00,,,0.00,VWS V14.01,2013-08-29 11:31:00,
2013-08-29 07:36:00,66.0,63.9,30.07,North,355,0.0,0.0,93,0.00,,,0.00,VWS V14.01,2013-08-29 11:36:00,
2013-08-29 07:41:00,65.9,63.8,30.07,North,355,0.0,0.0,93,0.00,,,0.00,VWS V14.01,2013-08-29 11:41:00,
2013-08-29 07:45:00,65.8,63.7,30.07,North,355,0.0,0.0,93,0.00,,SCT033,0.00,VWS V15.00,2013-08-29 11:45:00,
2013-08-29 07:46:00,65.9,63.8,30.07,North,355,0.0,0.0,93,0.00,,,0.00,VWS V14.01,2013-08-29 11:46:00,
2013-08-29 07:51:00,65.8,63.7,30.07,North,355,0.0,0.0,93,0.00,,,0.00,VWS V14.01,2013-08-29 11:51:00,
2013-08-29 07:56:00,65.8,63.7,30.07,North,355,0.0,0.0,93,0.00,,,0.00,VWS V14.01,2013-08-29 11:56:00,
2013-08-29 08:00:00,65.9,63.8,30.07,North,355,0.0,0.0,93,0.00,,SCT033,0.00,VWS V15.00,2013-08-29 12:00:00,
2013-08-29 08:01:00,65.9,63.8,30.07,North,355,0.0,0.0,93,0.00,,,0.00,VWS V14.01,2013-08-29 12:01:00,
2013-08-29 08:06:00,66.0,63.9,30.07,North,355,0.0,0.0,93,0.00,,,0.00,VWS V14.01,2013-08-29 12:06:00,
2013-08-29 08:11:00,66.3,64.5,30.08,North,355,0.0,0.0,94,0.00,,,0.00,VWS V14.01,2013-08-29 12:11:00,
2013-08-29 08:15:00,66.6,64.8,30.08,North,355,0.0,0.0,94,0.00,,SCT033,0.00,VWS V15.00,2013-08-29 12:15:00,
2013-08-29 08:16:00,66.7,64.9,30.08,North,355,0.0,0.0,94,0.00,,,0.00,VWS V14.01,2013-08-29 12:16:00,
2013-08-29 08:21:00,67.3,65.5,30.08,North,355,0.0,0.0,94,0.00,,,0.00,VWS V14.01,2013-08-29 12:21:00,
2013-08-29 08:26:00,68.2,66.7,30.08,North,355,0.0,0.0,95,0.00,,,0.00,VWS V14.01,2013-08-29 12:26:00,
2013-08-29 08:30:00,68.8,67.3,30.08,North,355,0.0,0.0,95,0.00,,SCT033,0.00,VWS V15.00,2013-08-29 12:30:00,
2013-08-29 08:31:00,69.0,67.5,30.08,North,355,0.0,0.0,95,0.00,,,0.00,VWS V14.01,2013-08-29 12:31:00,
2013-08-29 08:37:00,69.7,68.2,30.08,North,355,0.0,0.0,95,0.00,,,0.00,VWS V14.01,2013-08-29 12:37:00,
2013-08-29 08:42:00,70.1,68.6,30.08,North,355,0.0,0.0,95,0.00,,,0.00,VWS V14.01,2013-08-29 12:42:00,
2013-08-29 08:45:00,70.4,68.9,30.08,North,355,0.0,0.0,95,0.00,,SCT033,0.00,VWS V15.00,2013-08-29 12:45:00,
2013-08-29 08:47:00,70.5,69.0,30.08,North,355,0.0,0.0,95,0.00,,,0.00,VWS V14.01,2013-08-29 12:47:00,
2013-08-29 08:52:00,70.7,69.2,30.08,North,355,0.0,1.0,95,0.00,,,0.00,VWS V14.01,2013-08-29 12:52:00,
2013-08-29 08:57:00,71.0,69.2,30.08,North,355,0.0,0.0,94,0.00,,,0.00,VWS V14.01,2013-08-29 12:57:00,
2013-08-29 09:00:00,71.3,69.8,30.08,North,355,0.0,0.0,95,0.00,,SCT033,0.00,VWS V15.00,2013-08-29 13:00:00,
2013-08-29 09:02:00,71.3,69.8,30.08,North,355,0.0,0.0,95,0.00,,,0.00,VWS V14.01,2013-08-29 13:02:00,
2013-08-29 09:07:00,71.7,69.9,30.08,North,355,0.0,0.0,94,0.00,,,0.00,VWS V14.01,2013-08-29 13:07:00,
2013-08-29 09:12:00,72.0,70.2,30.08,North,355,0.0,0.0,94,0.00,,,0.00,VWS V14.01,2013-08-29 13:12:00,
2013-08-29 09:15:00,72.3,70.5,30.08,North,355,0.0,0.0,94,0.00,,SCT033,0.00,VWS V15.00,2013-08-29 13:15:00,
2013-08-29 09:17:00,72.4,70.6,30.08,North,355,0.0,0.0,94,0.00,,,0.00,VWS V14.01,2013-08-29 13:17:00,
2013-08-29 09:22:00,73.0,71.2,30.08,North,355,0.0,0.0,94,0.00,,,0.00,VWS V14.01,2013-08-29 13:22:00,
2013-08-29 09:27:00,73.5,71.4,30.08,North,355,0.0,0.0,93,0.00,,,0.00,VWS V14.01,2013-08-29 13:27:00,
2013-08-29 09:30:00,73.8,71.7,30.08,North,355,0.0,0.0,93,0.00,,SCT033,0.00,VWS V15.00,2013-08-29 13:30:00,
2013-08-29 09:32:00,74.0,71.8,30.08,North,355,0.0,0.0,93,0.00,,,0.00,VWS V14.01,2013-08-29 13:32:00,
2013-08-29 09:37:00,74.7,71.9,30.08,North,355,0.0,0.0,91,0.00,,,0.00,VWS V14.01,2013-08-29 13:37:00,
2013-08-29 09:42:00,75.4,72.3,30.08,North,355,0.0,0.0,90,0.00,,,0.00,VWS V14.01,2013-08-29 13:42:00,
2013-08-29 09:45:00,75.7,72.2,30.08,North,355,0.0,0.0,89,0.00,,SCT033,0.00,VWS V15.00,2013-08-29 13:45:00,
2013-08-29 09:47:00,76.0,71.9,30.08,North,355,0.0,1.0,87,0.00,,,0.00,VWS V14.01,2013-08-29 13:47:00,
2013-08-29 09:53:00,76.8,71.6,30.08,North,355,0.0,0.0,84,0.00,,,0.00,VWS V14.01,2013-08-29 13:53:00,
2013-08-29 09:58:00,77.5,71.2,30.08,North,7,0.0,0.0,81,0.00,,,0.00,VWS V14.01,2013-08-29 13:58:00,
2013-08-29 10:00:00,77.8,71.1,30.08,North,8,0.0,0.0,80,0.00,,SCT033,0.00,VWS V15.00,2013-08-29 14:00:00,
2013-08-29 10:03:00,78.2,70.8,30.08,NNE,22,0.0,2.0,78,0.00,,,0.00,VWS V14.01,2013-08-29 14:03:00,
2013-08-29 10:08:00,78.7,70.5,30.09,NNE,22,0.0,1.0,76,0.00,,FEW170,0.00,VWS V14.01,2013-08-29 14:08:00,
2013-08-29 10:13:00,79.2,70.6,30.09,NNE,22,4.0,10.0,75,0.00,,FEW170,0.00,VWS V14.01,2013-08-29 14:13:00,
2013-08-29 10:15:00,79.3,70.3,30.09,NNE,22,0.0,0.0,74,0.00,,SCT033,0.00,VWS V15.00,2013-08-29 14:15:00,
2013-08-29 10:18:00,79.6,70.6,30.09,NNE,22,0.0,0.0,74,0.00,,FEW170,0.00,VWS V14.01,2013-08-29 14:18:00,
2013-08-29 10:23:00,79.9,70.5,30.09,NE,41,5.0,5.0,73,0.00,,FEW170,0.00,VWS V14.01,2013-08-29 14:23:00,
2013-08-29 10:28:00,80.1,70.7,30.09,NE,45,0.0,1.0,73,0.00,,FEW170,0.00,VWS V14.01,2013-08-29 14:28:00,
2013-08-29 10:30:00,80.2,70.4,30.09,NE,45,0.0,4.0,72,0.00,,SCT033,0.00,VWS V15.00,2013-08-29 14:30:00,
2013-08-29 10:33:00,80.4,70.6,30.09,NE,45,0.0,0.0,72,0.00,,FEW170,0.00,VWS V14.01,2013-08-29 14:33:00,
2013-08-29 10:38:00,80.9,70.2,30.09,NE,45,0.0,5.0,70,0.00,,FEW170,0.00,VWS V14.01,2013-08-29 14:38:00,
2013-08-29 10:43:00,81.3,70.2,30.09,NE,45,0.0,4.0,69,0.00,,FEW170,0.00,VWS V14.01,2013-08-29 14:43:00,
2013-08-29 10:45:00,81.4,69.8,30.09,NE,45,2.0,4.0,68,0.00,,SCT033,0.00,VWS V15.00,2013-08-29 14:45:00,
2013-08-29 10:48:00,81.6,70.0,30.09,NE,45,0.0,1.0,68,0.00,,FEW170,0.00,VWS V14.01,2013-08-29 14:48:00,
2013-08-29 10:53:00,81.9,69.4,30.09,NE,46,0.0,3.0,66,0.00,,FEW170,0.00,VWS V14.01,2013-08-29 14:53:00,
2013-08-29 10:58:00,82.3,68.9,30.08,NE,46,0.0,0.0,64,0.00,,FEW170,0.00,VWS V14.01,2013-08-29 14:58:00,
2013-08-29 11:00:00,82.4,69.5,30.08,NE,46,0.0,0.0,65,0.00,,SCT033,0.00,VWS V15.00,2013-08-29 15:00:00,
2013-08-29 11:03:00,82.6,69.7,30.09,NE,46,0.0,0.0,65,0.00,,FEW170,0.00,VWS V14.01,2013-08-29 15:03:00,
2013-08-29 11:08:00,83.1,70.6,30.08,NE,46,0.0,0.0,66,0.00,,FEW170,0.00,VWS V14.01,2013-08-29 15:08:00,
2013-08-29 11:13:00,83.5,69.6,30.09,ENE,58,0.0,4.0,63,0.00,,FEW180,0.00,VWS V14.01,2013-08-29 15:13:00,
2013-08-29 11:15:00,83.6,69.7,30.09,ENE,58,0.0,3.0,63,0.00,,SCT033,0.00,VWS V15.00,2013-08-29 15:15:00,
2013-08-29 11:18:00,83.9,70.4,30.09,ENE,58,0.0,0.0,64,0.00,,FEW180,0.00,VWS V14.01,2013-08-29 15:18:00,
2013-08-29 11:23:00,84.1,69.7,30.09,ENE,68,0.0,0.0,62,0.00,,FEW180,0.00,VWS V14.01,2013-08-29 15:23:00,
2013-08-29 11:29:00,84.3,69.4,30.09,ENE,68,0.0,0.0,61,0.00,,FEW180,0.00,VWS V14.01,2013-08-29 15:29:00,
2013-08-29 11:30:00,84.3,69.4,30.09,ENE,68,0.0,0.0,61,0.00,,SCT033,0.00,VWS V15.00,2013-08-29 15:30:00,
2013-08-29 11:34:00,84.3,69.4,30.09,ENE,68,3.0,5.0,61,0.00,,FEW180,0.00,VWS V14.01,2013-08-29 15:34:00,
2013-08-29 11:39:00,84.4,69.0,30.09,ENE,68,0.0,1.0,60,0.00,,FEW180,0.00,VWS V14.01,2013-08-29 15:39:00,
2013-08-29 11:44:00,84.5,69.1,30.09,ENE,68,1.0,3.0,60,0.00,,FEW180,0.00,VWS V14.01,2013-08-29 15:44:00,
2013-08-29 11:45:00,84.5,69.1,30.09,ENE,68,0.0,5.0,60,0.00,,SCT033,0.00,VWS V15.00,2013-08-29 15:45:00,
2013-08-29 11:49:00,84.6,69.7,30.09,ENE,68,0.0,5.0,61,0.00,,FEW180,0.00,VWS V14.01,2013-08-29 15:49:00,
2013-08-29 11:54:00,85.0,70.1,30.08,ENE,68,0.0,5.0,61,0.00,,FEW180,0.00,VWS V14.01,2013-08-29 15:54:00,
2013-08-29 11:59:00,85.2,68.8,30.09,ENE,68,0.0,0.0,58,0.00,,FEW180,0.00,VWS V14.01,2013-08-29 15:59:00,
2013-08-29 12:00:00,85.2,68.8,30.09,ENE,68,0.0,1.0,58,0.00,,SCT033,0.00,VWS V15.00,2013-08-29 16:00:00,
2013-08-29 12:04:00,85.5,68.5,30.09,ENE,68,2.0,6.0,57,0.00,,FEW180,0.00,VWS V14.01,2013-08-29 16:04:00,
2013-08-29 12:09:00,85.4,69.4,30.09,ENE,68,0.0,1.0,59,0.00,,FEW180,0.00,VWS V14.01,2013-08-29 16:09:00,
2013-08-29 12:14:00,85.6,70.1,30.08,ENE,68,0.0,1.0,60,0.00,,FEW180,0.00,VWS V14.01,2013-08-29 16:14:00,
2013-08-29 12:15:00,85.6,70.1,30.08,ENE,68,0.0,0.0,60,0.00,,SCT033,0.00,VWS V15.00,2013-08-29 16:15:00,
2013-08-29 12:19:00,85.9,69.4,30.08,ENE,68,2.0,5.0,58,0.00,,FEW180,0.00,VWS V14.01,2013-08-29 16:19:00,
2013-08-29 12:24:00,85.8,67.8,30.08,ENE,68,5.0,5.0,55,0.00,,FEW180,0.00,VWS V14.01,2013-08-29 16:24:00,
2013-08-29 12:29:00,85.8,68.8,30.08,ENE,68,0.0,0.0,57,0.00,,FEW180,0.00,VWS V14.01,2013-08-29 16:29:00,
2013-08-29 12:30:00,85.8,68.8,30.08,ENE,68,0.0,1.0,57,0.00,,SCT033,0.00,VWS V15.00,2013-08-29 16:30:00,
2013-08-29 12:34:00,85.9,67.9,30.08,ENE,68,6.0,6.0,55,0.00,,FEW180,0.00,VWS V14.01,2013-08-29 16:34:00,
2013-08-29 12:39:00,86.0,68.5,30.08,ENE,68,0.0,0.0,56,0.00,,FEW180,0.00,VWS V14.01,2013-08-29 16:39:00,
2013-08-29 12:44:00,86.0,68.0,30.07,ENE,68,0.0,1.0,55,0.00,,FEW180,0.00,VWS V14.01,2013-08-29 16:44:00,
2013-08-29 12:45:00,86.1,68.1,30.07,ENE,68,0.0,0.0,55,0.00,,SCT033,0.00,VWS V15.00,2013-08-29 16:45:00,
2013-08-29 12:49:00,86.4,69.4,30.07,ENE,68,0.0,1.0,57,0.00,,FEW180,0.00,VWS V14.01,2013-08-29 16:49:00,
2013-08-29 12:54:00,86.7,69.1,30.07,ENE,68,0.0,1.0,56,0.00,,FEW180,0.00,VWS V14.01,2013-08-29 16:54:00,
2013-08-29 13:00:00,87.0,69.4,30.07,ENE,68,0.0,1.0,56,0.00,,FEW180,0.00,VWS V14.01,2013-08-29 17:00:00,
2013-08-29 13:05:00,87.1,67.9,30.07,ENE,68,0.0,5.0,53,0.00,,FEW180,0.00,VWS V14.01,2013-08-29 17:05:00,
2013-08-29 13:10:00,87.5,69.9,30.06,ENE,68,0.0,3.0,56,0.00,,FEW180,0.00,VWS V14.01,2013-08-29 17:10:00,
2013-08-29 13:15:00,87.8,67.4,30.06,ENE,68,5.0,5.0,51,0.00,,SCT180,0.00,VWS V14.01,2013-08-29 17:15:00,
2013-08-29 13:20:00,87.8,66.3,30.07,ENE,68,0.0,0.0,49,0.00,,SCT180,0.00,VWS V14.01,2013-08-29 17:20:00,
2013-08-29 13:25:00,87.7,66.2,30.07,ENE,68,8.0,8.0,49,0.00,,SCT180,0.00,VWS V14.01,2013-08-29 17:25:00,
2013-08-29 13:30:00,87.5,64.8,30.07,ENE,68,0.0,0.0,47,0.00,,SCT180,0.00,VWS V14.01,2013-08-29 17:30:00,
2013-08-29 13:35:00,87.7,68.5,30.06,ENE,68,0.0,1.0,53,0.00,,SCT180,0.00,VWS V14.01,2013-08-29 17:35:00,
2013-08-29 13:40:00,88.2,68.4,30.07,ENE,68,0.0,1.0,52,0.00,,SCT180,0.00,VWS V14.01,2013-08-29 17:40:00,
2013-08-29 13:45:00,88.4,68.6,30.06,ENE,68,0.0,0.0,52,0.00,,SCT180,0.00,VWS V14.01,2013-08-29 17:45:00,
2013-08-29 13:50:00,88.6,66.4,30.06,ENE,68,0.0,0.0,48,0.00,,SCT180,0.00,VWS V14.01,2013-08-29 17:50:00,
2013-08-29 13:55:00,88.9,68.4,30.07,ENE,68,0.0,0.0,51,0.00,,SCT180,0.00,VWS V14.01,2013-08-29 17:55:00,
2013-08-29 14:00:00,89.1,68.1,30.06,ENE,68,0.0,0.0,50,0.00,,SCT180,0.00,VWS V14.01,2013-08-29 18:00:00,
2013-08-29 14:05:00,89.2,68.2,30.06,ENE,68,0.0,7.0,50,0.00,,SCT180,0.00,VWS V14.01,2013-08-29 18:05:00,
2013-08-29 14:10:00,89.5,68.4,30.06,ENE,69,3.0,5.0,50,0.00,,SCT220,0.00,VWS V14.01,2013-08-29 18:10:00,
2013-08-29 14:15:00,89.5,67.2,30.06,ENE,69,0.0,0.0,48,0.00,,SCT220,0.00,VWS V14.01,2013-08-29 18:15:00,
2013-08-29 14:20:00,89.7,70.3,30.06,ENE,69,0.0,0.0,53,0.00,,SCT220,0.00,VWS V14.01,2013-08-29 18:20:00,
2013-08-29 14:25:00,89.8,66.9,30.06,ENE,69,0.0,1.0,47,0.00,,SCT220,0.00,VWS V14.01,2013-08-29 18:25:00,
2013-08-29 14:30:00,90.0,67.7,30.06,ENE,70,2.0,2.0,48,0.00,,SCT220,0.00,VWS V14.01,2013-08-29 18:30:00,
2013-08-29 14:35:00,90.2,69.6,30.06,East,89,2.0,7.0,51,0.00,,SCT220,0.00,VWS V14.01,2013-08-29 18:35:00,
2013-08-29 14:40:00,90.4,67.4,30.06,East,89,0.0,4.0,47,0.00,,SCT220,0.00,VWS V14.01,2013-08-29 18:40:00,
2013-08-29 14:45:00,90.6,66.4,30.06,East,89,0.0,0.0,45,0.00,,SCT220,0.00,VWS V14.01,2013-08-29 18:45:00,
2013-08-29 14:50:00,90.7,67.7,30.05,East,89,0.0,0.0,47,0.00,,SCT220,0.00,VWS V14.01,2013-08-29 18:50:00,
2013-08-29 14:55:00,90.9,66.0,30.05,East,89,0.0,0.0,44,0.00,,SCT220,0.00,VWS V14.01,2013-08-29 18:55:00,
2013-08-29 15:00:00,91.0,66.1,30.05,East,89,0.0,2.0,44,0.00,,SCT220,0.00,VWS V14.01,2013-08-29 19:00:00,
2013-08-29 15:05:00,91.1,66.8,30.04,East,89,0.0,1.0,45,0.00,,SCT220,0.00,VWS V14.01,2013-08-29 19:05:00,
2013-08-29 15:10:00,91.0,67.4,30.05,East,89,0.0,0.0,46,0.00,,SCT220,0.00,VWS V14.01,2013-08-29 19:10:00,
2013-08-29 15:15:00,91.2,66.9,30.04,East,89,0.0,0.0,45,0.00,,SCT220,0.00,VWS V14.01,2013-08-29 19:15:00,
2013-08-29 15:21:00,91.3,67.6,30.04,East,89,0.0,4.0,46,0.00,,SCT220,0.00,VWS V14.01,2013-08-29 19:21:00,
2013-08-29 15:26:00,91.3,65.0,30.04,East,89,0.0,0.0,42,0.00,,SCT220,0.00,VWS V14.01,2013-08-29 19:26:00,
2013-08-29 15:30:00,91.3,65.0,30.04,East,89,1.0,5.0,42,0.00,,SCT033,0.00,VWS V15.00,2013-08-29 19:30:00,
2013-08-29 15:31:00,91.3,65.7,30.04,East,89,0.0,5.0,43,0.00,,SCT220,0.00,VWS V14.01,2013-08-29 19:31:00,
2013-08-29 15:36:00,91.3,62.9,30.04,East,89,0.0,1.0,39,0.00,,SCT220,0.00,VWS V14.01,2013-08-29 19:36:00,
2013-08-29 15:41:00,91.1,62.7,30.04,East,89,2.0,4.0,39,0.00,,SCT220,0.00,VWS V14.01,2013-08-29 19:41:00,
2013-08-29 15:46:00,90.7,63.1,30.03,East,89,0.0,3.0,40,0.00,,SCT220,0.00,VWS V14.01,2013-08-29 19:46:00,
2013-08-29 15:51:00,90.7,63.8,30.03,East,89,0.0,0.0,41,0.00,,SCT220,0.00,VWS V14.01,2013-08-29 19:51:00,
2013-08-29 15:56:00,90.7,64.5,30.03,East,89,1.0,1.0,42,0.00,,SCT220,0.00,VWS V14.01,2013-08-29 19:56:00,
2013-08-29 16:00:00,90.9,64.7,30.02,East,89,0.0,1.0,42,0.00,,SCT033,0.00,VWS V15.00,2013-08-29 20:00:00,
2013-08-29 16:01:00,90.9,65.3,30.02,East,89,2.0,3.0,43,0.00,,FEW042,0.00,VWS V14.01,2013-08-29 20:01:00,
2013-08-29 16:06:00,91.0,64.1,30.02,East,89,2.0,2.0,41,0.00,,FEW042,0.00,VWS V14.01,2013-08-29 20:06:00,
2013-08-29 16:11:00,91.0,63.3,30.02,East,89,0.0,0.0,40,0.00,,FEW042,0.00,VWS V14.01,2013-08-29 20:11:00,
2013-08-29 16:15:00,91.1,64.8,30.02,East,89,3.0,5.0,42,0.00,,SCT033,0.00,VWS V15.00,2013-08-29 20:15:00,
2013-08-29 16:16:00,91.1,64.1,30.02,East,89,0.0,4.0,41,0.00,,FEW042,0.00,VWS V14.01,2013-08-29 20:16:00,
2013-08-29 16:21:00,91.2,63.5,30.02,East,89,0.0,0.0,40,0.00,,FEW042,0.00,VWS V14.01,2013-08-29 20:21:00,
2013-08-29 16:26:00,91.3,65.0,30.02,East,83,3.0,7.0,42,0.00,,FEW042,0.00,VWS V14.01,2013-08-29 20:26:00,
2013-08-29 16:30:00,91.4,64.4,30.02,East,84,0.0,2.0,41,0.00,,SCT033,0.00,VWS V15.00,2013-08-29 20:30:00,
2013-08-29 16:31:00,91.4,64.4,30.02,East,84,6.0,6.0,41,0.00,,FEW042,0.00,VWS V14.01,2013-08-29 20:31:00,
2013-08-29 16:36:00,91.1,64.1,30.02,East,84,3.0,3.0,41,0.00,,FEW042,0.00,VWS V14.01,2013-08-29 20:36:00,
2013-08-29 16:41:00,90.7,63.8,30.02,East,84,0.0,2.0,41,0.00,,FEW042,0.00,VWS V14.01,2013-08-29 20:41:00,
2013-08-29 16:45:00,90.7,63.8,30.02,East,84,1.0,1.0,41,0.00,,SCT033,0.00,VWS V15.00,2013-08-29 20:45:00,
2013-08-29 16:46:00,90.8,63.9,30.02,East,84,6.0,6.0,41,0.00,,FEW042,0.00,VWS V14.01,2013-08-29 20:46:00,
2013-08-29 16:51:00,90.9,64.0,30.02,East,84,0.0,1.0,41,0.00,,FEW042,0.00,VWS V14.01,2013-08-29 20:51:00,
2013-08-29 16:56:00,91.0,65.4,30.01,East,84,0.0,0.0,43,0.00,,FEW042,0.00,VWS V14.01,2013-08-29 20:56:00,
2013-08-29 17:00:00,91.1,63.4,30.02,East,84,0.0,0.0,40,0.00,,SCT033,0.00,VWS V15.00,2013-08-29 21:00:00,
2013-08-29 17:01:00,91.1,64.1,30.01,East,84,0.0,2.0,41,0.00,,FEW042,0.00,VWS V14.01,2013-08-29 21:01:00,
2013-08-29 17:06:00,91.1,64.8,30.02,East,84,0.0,0.0,42,0.00,,FEW042,0.00,VWS V14.01,2013-08-29 21:06:00,
2013-08-29 17:11:00,91.3,65.0,30.01,East,84,6.0,7.0,42,0.00,,FEW046,0.00,VWS V14.01,2013-08-29 21:11:00,
2013-08-29 17:15:00,91.5,65.2,30.01,East,97,2.0,5.0,42,0.00,,SCT033,0.00,VWS V15.00,2013-08-29 21:15:00,
2013-08-29 17:16:00,91.5,65.2,30.01,East,97,7.0,9.0,42,0.00,,FEW046,0.00,VWS V14.01,2013-08-29 21:16:00,
2013-08-29 17:21:00,91.7,65.4,30.01,East,97,0.0,1.0,42,0.00,,FEW046,0.00,VWS V14.01,2013-08-29 21:21:00,
2013-08-29 17:26:00,91.7,65.4,30.01,East,97,0.0,4.0,42,0.00,,FEW046,0.00,VWS V14.01,2013-08-29 21:26:00,
2013-08-29 17:30:00,91.6,66.0,30.01,ESE,103,0.0,3.0,43,0.00,,SCT033,0.00,VWS V15.00,2013-08-29 21:30:00,
2013-08-29 17:31:00,91.6,66.0,30.01,ESE,103,7.0,7.0,43,0.00,,FEW046,0.00,VWS V14.01,2013-08-29 21:31:00,
2013-08-29 17:37:00,91.3,65.7,30.01,East,97,0.0,0.0,43,0.00,,FEW046,0.00,VWS V14.01,2013-08-29 21:37:00,
2013-08-29 17:42:00,91.2,66.3,30.01,East,97,0.0,0.0,44,0.00,,FEW046,0.00,VWS V14.01,2013-08-29 21:42:00,
2013-08-29 17:45:00,91.2,66.9,30.01,East,97,4.0,5.0,45,0.00,,SCT033,0.00,VWS V15.00,2013-08-29 21:45:00,
2013-08-29 17:47:00,91.1,67.5,30.01,ESE,110,1.0,6.0,46,0.00,,FEW046,0.00,VWS V14.01,2013-08-29 21:47:00,
2013-08-29 17:52:00,91.0,67.4,30.01,ESE,111,6.0,7.0,46,0.00,,FEW046,0.00,VWS V14.01,2013-08-29 21:52:00,
2013-08-29 17:57:00,90.8,67.2,30.01,ESE,112,3.0,4.0,46,0.00,,FEW046,0.00,VWS V14.01,2013-08-29 21:57:00,
2013-08-29 18:00:00,90.6,66.4,30.01,ESE,112,0.0,7.0,45,0.00,,SCT033,0.00,VWS V15.00,2013-08-29 22:00:00,
2013-08-29 18:02:00,90.5,66.3,30.01,ESE,109,7.0,7.0,45,0.00,,FEW046,0.00,VWS V14.01,2013-08-29 22:02:00,
2013-08-29 18:07:00,90.0,65.8,30.01,ESE,109,3.0,3.0,45,0.00,,FEW046,0.00,VWS V14.01,2013-08-29 22:07:00,
2013-08-29 18:12:00,89.6,66.1,30.01,ESE,109,0.0,1.0,46,0.00,,FEW046,0.00,VWS V14.01,2013-08-29 22:12:00,
2013-08-29 18:15:00,89.4,66.5,30.01,ESE,109,7.0,8.0,47,0.00,,SCT033,0.00,VWS V15.00,2013-08-29 22:15:00,
2013-08-29 18:17:00,89.3,66.4,30.01,ESE,109,0.0,1.0,47,0.00,,FEW046,0.00,VWS V14.01,2013-08-29 22:17:00,
2013-08-29 18:22:00,89.0,67.4,30.01,ESE,109,0.0,0.0,49,0.00,,FEW046,0.00,VWS V14.01,2013-08-29 22:22:00,
2013-08-29 18:27:00,88.7,67.1,30.01,ESE,109,3.0,3.0,49,0.00,,FEW046,0.00,VWS V14.01,2013-08-29 22:27:00,
2013-08-29 18:30:00,88.5,66.9,30.01,ESE,109,5.0,5.0,49,0.00,,SCT033,0.00,VWS V15.00,2013-08-29 22:30:00,
2013-08-29 18:32:00,88.5,66.9,30.01,ESE,109,4.0,4.0,49,0.00,,FEW046,0.00,VWS V14.01,2013-08-29 22:32:00,
2013-08-29 18:37:00,88.3,66.7,30.01,ESE,109,0.0,3.0,49,0.00,,FEW046,0.00,VWS V14.01,2013-08-29 22:37:00,
2013-08-29 18:42:00,88.1,66.6,30.01,ESE,109,0.0,0.0,49,0.00,,FEW046,0.00,VWS V14.01,2013-08-29 22:42:00,
2013-08-29 18:45:00,87.9,66.4,30.00,ESE,109,0.0,0.0,49,0.00,,SCT033,0.00,VWS V15.00,2013-08-29 22:45:00,
2013-08-29 18:47:00,87.8,66.9,30.00,ESE,109,0.0,0.0,50,0.00,,FEW046,0.00,VWS V14.01,2013-08-29 22:47:00,
2013-08-29 18:52:00,87.6,66.7,30.00,ESE,109,2.0,4.0,50,0.00,,FEW046,0.00,VWS V14.01,2013-08-29 22:52:00,
2013-08-29 18:57:00,87.5,66.6,30.00,ESE,109,4.0,5.0,50,0.00,,FEW046,0.00,VWS V14.01,2013-08-29 22:57:00,
2013-08-29 19:00:00,87.4,66.5,30.00,ESE,109,0.0,5.0,50,0.00,,SCT033,0.00,VWS V15.00,2013-08-29 23:00:00,
2013-08-29 19:02:00,87.3,66.4,30.00,ESE,109,0.0,0.0,50,0.00,,SCT230,0.00,VWS V14.01,2013-08-29 23:02:00,
2013-08-29 19:07:00,87.1,65.1,30.00,ESE,109,0.0,0.0,48,0.00,,SCT230,0.00,VWS V14.01,2013-08-29 23:07:00,
2013-08-29 19:12:00,86.9,64.9,30.00,ESE,109,0.0,0.0,48,0.00,,SCT230,0.00,VWS V14.01,2013-08-29 23:12:00,
2013-08-29 19:15:00,86.9,65.5,30.00,ESE,109,0.0,0.0,49,0.00,,SCT033,0.00,VWS V15.00,2013-08-29 23:15:00,
2013-08-29 19:17:00,86.8,65.4,30.01,ESE,109,0.0,0.0,49,0.00,,SCT230,0.00,VWS V14.01,2013-08-29 23:17:00,
2013-08-29 19:22:00,86.7,65.3,30.00,ESE,109,0.0,4.0,49,0.00,,SCT230,0.00,VWS V14.01,2013-08-29 23:22:00,
2013-08-29 19:27:00,86.5,65.7,30.01,ESE,109,0.0,0.0,50,0.00,,SCT230,0.00,VWS V14.01,2013-08-29 23:27:00,
2013-08-29 19:30:00,86.4,65.6,30.00,ESE,109,0.0,0.0,50,0.00,,SCT033,0.00,VWS V15.00,2013-08-29 23:30:00,
2013-08-29 19:32:00,86.4,65.6,30.01,ESE,109,0.0,0.0,50,0.00,,SCT230,0.00,VWS V14.01,2013-08-29 23:32:00,
2013-08-29 19:37:00,86.2,66.0,30.01,ESE,109,0.0,0.0,51,0.00,,SCT230,0.00,VWS V14.01,2013-08-29 23:37:00,
2013-08-29 19:43:00,86.1,65.9,30.01,ESE,109,0.0,0.0,51,0.00,,SCT230,0.00,VWS V14.01,2013-08-29 23:43:00,
2013-08-29 19:45:00,86.1,67.0,30.01,ESE,109,0.0,0.0,53,0.00,,SCT033,0.00,VWS V15.00,2013-08-29 23:45:00,
2013-08-29 19:48:00,86.0,67.4,30.01,ESE,109,0.0,0.0,54,0.00,,SCT230,0.00,VWS V14.01,2013-08-29 23:48:00,
2013-08-29 19:53:00,85.8,67.2,30.01,ESE,109,0.0,0.0,54,0.00,,SCT230,0.00,VWS V14.01,2013-08-29 23:53:00,
2013-08-29 19:58:00,85.5,67.5,30.01,ESE,109,0.0,0.0,55,0.00,,SCT230,0.00,VWS V14.01,2013-08-29 23:58:00,
2013-08-29 20:00:00,85.3,67.8,30.01,ESE,109,0.0,0.0,56,0.00,,SCT033,0.00,VWS V15.00,2013-08-30 00:00:00,
2013-08-29 20:03:00,85.2,68.8,30.01,ESE,109,0.0,0.0,58,0.00,,FEW250,0.00,VWS V14.01,2013-08-30 00:03:00,
2013-08-29 20:08:00,84.8,68.4,30.01,ESE,109,0.0,0.0,58,0.00,,FEW250,0.00,VWS V14.01,2013-08-30 00:08:00,
2013-08-29 20:13:00,84.2,68.3,30.01,ESE,109,0.0,0.0,59,0.00,,FEW250,0.00,VWS V14.01,2013-08-30 00:13:00,
2013-08-29 20:15:00,84.0,68.1,30.01,ESE,109,0.0,0.0,59,0.00,,SCT033,0.00,VWS V15.00,2013-08-30 00:15:00,
2013-08-29 20:18:00,83.7,67.9,30.01,ESE,109,0.0,0.0,59,0.00,,FEW250,0.00,VWS V14.01,2013-08-30 00:18:00,
2013-08-29 20:23:00,82.8,68.0,30.01,ESE,109,3.0,4.0,61,0.00,,FEW250,0.00,VWS V14.01,2013-08-30 00:23:00,
2013-08-29 20:28:00,82.1,68.3,30.01,ESE,109,0.0,1.0,63,0.00,,FEW250,0.00,VWS V14.01,2013-08-30 00:28:00,
2013-08-29 20:30:00,81.9,68.1,30.01,ESE,109,3.0,5.0,63,0.00,,SCT033,0.00,VWS V15.00,2013-08-30 00:30:00,
2013-08-29 20:33:00,81.6,67.8,30.01,ESE,109,0.0,3.0,63,0.00,,FEW250,0.00,VWS V14.01,2013-08-30 00:33:00,
2013-08-29 20:38:00,81.0,67.7,30.01,ESE,109,2.0,4.0,64,0.00,,FEW250,0.00,VWS V14.01,2013-08-30 00:38:00,
2013-08-29 20:43:00,80.6,67.8,30.01,ESE,109,0.0,0.0,65,0.00,,FEW250,0.00,VWS V14.01,2013-08-30 00:43:00,
2013-08-29 20:45:00,80.4,67.6,30.01,ESE,109,0.0,3.0,65,0.00,,SCT033,0.00,VWS V15.00,2013-08-30 00:45:00,
2013-08-29 20:48:00,80.1,67.3,30.01,ESE,109,0.0,0.0,65,0.00,,FEW250,0.00,VWS V14.01,2013-08-30 00:48:00,
2013-08-29 20:53:00,80.0,67.6,30.01,ESE,109,0.0,0.0,66,0.00,,FEW250,0.00,VWS V14.01,2013-08-30 00:53:00,
2013-08-29 20:58:00,79.7,67.3,30.01,ESE,109,0.0,0.0,66,0.00,,FEW250,0.00,VWS V14.01,2013-08-30 00:58:00,
2013-08-29 21:00:00,79.6,67.2,30.01,ESE,109,0.0,0.0,66,0.00,,SCT033,0.00,VWS V15.00,2013-08-30 01:00:00,
2013-08-29 21:03:00,79.4,67.5,30.01,ESE,109,0.0,0.0,67,0.00,,FEW250,0.00,VWS V14.01,2013-08-30 01:03:00,
2013-08-29 21:08:00,79.0,67.6,30.01,ESE,109,0.0,0.0,68,0.00,,FEW250,0.00,VWS V14.01,2013-08-30 01:08:00,
2013-08-29 21:13:00,78.7,67.3,30.01,ESE,109,0.0,0.0,68,0.00,,FEW250,0.00,VWS V14.01,2013-08-30 01:13:00,
2013-08-29 21:15:00,78.6,67.2,30.01,ESE,109,0.0,0.0,68,0.00,,SCT033,0.00,VWS V15.00,2013-08-30 01:15:00,
2013-08-29 21:18:00,78.4,67.0,30.01,ESE,109,0.0,0.0,68,0.00,,FEW250,0.00,VWS V14.01,2013-08-30 01:18:00,
2013-08-29 21:23:00,78.1,67.9,30.01,ESE,109,0.0,0.0,71,0.00,,FEW250,0.00,VWS V14.01,2013-08-30 01:23:00,
2013-08-29 21:29:00,77.8,67.7,30.01,ESE,109,0.0,0.0,71,0.00,,FEW250,0.00,VWS V14.01,2013-08-30 01:29:00,
2013-08-29 21:30:00,77.6,67.5,30.01,ESE,109,0.0,0.0,71,0.00,,SCT033,0.00,VWS V15.00,2013-08-30 01:30:00,
2013-08-29 21:34:00,77.4,67.3,30.01,ESE,109,0.0,0.0,71,0.00,,FEW250,0.00,VWS V14.01,2013-08-30 01:34:00,
2013-08-29 21:39:00,77.1,67.8,30.01,ESE,109,0.0,0.0,73,0.00,,FEW250,0.00,VWS V14.01,2013-08-30 01:39:00,
2013-08-29 21:44:00,76.7,67.8,30.01,ESE,109,0.0,0.0,74,0.00,,FEW250,0.00,VWS V14.01,2013-08-30 01:44:00,
2013-08-29 21:45:00,76.6,67.7,30.01,ESE,109,0.0,0.0,74,0.00,,SCT033,0.00,VWS V15.00,2013-08-30 01:45:00,
2013-08-29 21:49:00,76.3,67.4,30.01,ESE,109,0.0,0.0,74,0.00,,FEW250,0.00,VWS V14.01,2013-08-30 01:49:00,
2013-08-29 21:54:00,75.9,67.0,30.00,ESE,109,0.0,0.0,74,0.00,,FEW250,0.00,VWS V14.01,2013-08-30 01:54:00,
2013-08-29 21:59:00,75.5,67.0,30.00,ESE,109,0.0,0.0,75,0.00,,FEW250,0.00,VWS V14.01,2013-08-30 01:59:00,
2013-08-29 22:00:00,75.5,67.0,30.00,ESE,109,0.0,0.0,75,0.00,,SCT033,0.00,VWS V15.00,2013-08-30 02:00:00,
2013-08-29 22:04:00,75.2,66.7,30.00,ESE,109,0.0,0.0,75,0.00,,FEW250,0.00,VWS V14.01,2013-08-30 02:04:00,
2013-08-29 22:09:00,74.9,66.8,30.00,ESE,109,0.0,0.0,76,0.00,,FEW250,0.00,VWS V14.01,2013-08-30 02:09:00,
2013-08-29 22:14:00,74.5,66.8,30.00,ESE,109,0.0,0.0,77,0.00,,FEW250,0.00,VWS V14.01,2013-08-30 02:14:00,
2013-08-29 22:15:00,74.5,66.8,30.00,ESE,109,0.0,0.0,77,0.00,,SCT033,0.00,VWS V15.00,2013-08-30 02:15:00,
2013-08-29 22:19:00,74.2,66.5,30.00,ESE,109,0.0,0.0,77,0.00,,FEW250,0.00,VWS V14.01,2013-08-30 02:19:00,
2013-08-29 22:24:00,74.0,67.1,30.00,ESE,109,0.0,0.0,79,0.00,,FEW250,0.00,VWS V14.01,2013-08-30 02:24:00,
2013-08-29 22:29:00,73.7,66.8,30.00,ESE,109,0.0,0.0,79,0.00,,FEW250,0.00,VWS V14.01,2013-08-30 02:29:00,
2013-08-29 22:30:00,73.7,66.8,30.00,ESE,109,0.0,0.0,79,0.00,,SCT033,0.00,VWS V15.00,2013-08-30 02:30:00,
2013-08-29 22:34:00,73.5,66.6,30.00,ESE,109,0.0,0.0,79,0.00,,CLR,0.00,VWS V14.01,2013-08-30 02:34:00,
2013-08-29 22:39:00,73.2,66.7,30.00,ESE,109,0.0,0.0,80,0.00,,CLR,0.00,VWS V14.01,2013-08-30 02:39:00,
2013-08-29 22:44:00,73.0,66.8,30.00,ESE,109,0.0,0.0,81,0.00,,CLR,0.00,VWS V14.01,2013-08-30 02:44:00,
2013-08-29 22:45:00,73.0,66.8,30.00,ESE,109,0.0,0.0,81,0.00,,SCT033,0.00,VWS V15.00,2013-08-30 02:45:00,
2013-08-29 22:49:00,72.8,66.6,29.99,ESE,109,0.0,0.0,81,0.00,,CLR,0.00,VWS V14.01,2013-08-30 02:49:00,
2013-08-29 22:54:00,72.6,66.4,30.00,ESE,109,0.0,0.0,81,0.00,,CLR,0.00,VWS V14.01,2013-08-30 02:54:00,
2013-08-29 22:59:00,72.4,66.6,30.00,ESE,109,0.0,0.0,82,0.00,,CLR,0.00,VWS V14.01,2013-08-30 02:59:00,
2013-08-29 23:00:00,72.4,66.6,30.00,ESE,109,0.0,0.0,82,0.00,,SCT033,0.00,VWS V15.00,2013-08-30 03:00:00,
2013-08-29 23:05:00,72.2,66.4,30.00,ESE,109,0.0,0.0,82,0.00,,CLR,0.00,VWS V14.01,2013-08-30 03:05:00,
2013-08-29 23:10:00,72.0,66.2,30.00,ESE,109,0.0,0.0,82,0.00,,CLR,0.00,VWS V14.01,2013-08-30 03:10:00,
2013-08-29 23:15:00,71.7,65.9,29.99,ESE,109,0.0,0.0,82,0.00,,CLR,0.00,VWS V14.01,2013-08-30 03:15:00,
2013-08-29 23:20:00,71.5,66.1,29.99,ESE,109,0.0,0.0,83,0.00,,CLR,0.00,VWS V14.01,2013-08-30 03:20:00,
2013-08-29 23:25:00,71.4,66.0,29.99,ESE,109,0.0,0.0,83,0.00,,CLR,0.00,VWS V14.01,2013-08-30 03:25:00,
2013-08-29 23:30:00,71.3,66.2,30.00,ESE,109,0.0,0.0,84,0.00,,CLR,0.00,VWS V14.01,2013-08-30 03:30:00,
2013-08-29 23:35:00,71.1,66.0,29.99,ESE,109,0.0,0.0,84,0.00,,CLR,0.00,VWS V14.01,2013-08-30 03:35:00,
2013-08-29 23:40:00,70.9,65.8,29.99,ESE,109,0.0,0.0,84,0.00,,CLR,0.00,VWS V14.01,2013-08-30 03:40:00,
2013-08-29 23:45:00,70.8,65.7,29.99,ESE,109,0.0,0.0,84,0.00,,CLR,0.00,VWS V14.01,2013-08-30 03:45:00,
2013-08-29 23:50:00,70.6,65.5,29.99,ESE,109,0.0,0.0,84,0.00,,CLR,0.00,VWS V14.01,2013-08-30 03:50:00,
2013-08-29 23:55:00,70.4,65.3,29.99,ESE,109,0.0,0.0,84,0.00,,CLR,0.00,VWS V14.01,2013-08-30 03:55:00,